{"data":{"norad_id":65817,"intl_designator":"2025-220A","name":"HULIANWANG DIGUI-82","alt_names":[],"object_type":"PAYLOAD","status":"ACTIVE","operator":null,"country":"PRC","launch_date":"2025-09-27","launch_site_code":"TAISC","launch_vehicle":null,"mission":null,"orbit_class":"UNKNOWN","rcs_meters":null,"size_class":null,"mass_kg":null,"dimensions":null,"purposes":[],"wikipedia_slug":null,"has_3d_model":false,"image_url":null,"decayed_at":null,"tle_current":{"epoch":"2026-09-20T13:57:46.710432Z","epoch_age_seconds":139746,"freshness":"FRESH","line1":"1 65817U 25220A   26263.58179063  .00000033  00000+0  41675-4 0  9998","line2":"2 65817  86.5037  11.6546 0001288  88.0423 272.0859 13.24411501 47540","mean_motion":13.24411501,"eccentricity":0.0001288,"inclination_deg":86.5037,"raan_deg":11.6546,"arg_perigee_deg":88.0423,"mean_anomaly_deg":272.0859,"bstar":4.1675e-5,"rev_number":4754,"period_min":108.72753663893,"perigee_km":1166.9445524688,"apogee_km":1168.8884158464,"semimajor_km":7546.0534841576,"source":"CELESTRAK","updated_at":"2026-09-21T09:00:15.571253Z"}}}